Regional Weather Roundup
Issued by NWS

Home | Current Version | Previous Version | Text Only | Print | Product List | Glossary On
Versions: 1 2 3 4 5 6 7 8 9 10 11 12 13 14 15 16 17 18 19 20 21 22 23 24 25 26 27 28 29 30 31 32 33 34 35 36 37 38 39 40 41 42 43 44 45 46 47 48 49 50
000
ASUS43 KLMK 121410
RWRKY
KENTUCKY REGIONAL WEATHER ROUNDUP
NATIONAL WEATHER SERVICE LOUISVILLE KY
1000 AM EDT SAT JUL 12 2014

NOTE "FAIR" INDICATES FEW OR NO CLOUDS BELOW 12,000 FEET
WITH NO SIGNIFICANT WEATHER AND/OR OBSTRUCTIONS TO VISIBILITY.

KYZ001>023-026-027-061>063-070>075-121500-
WESTERN AND SOUTH CENTRAL KENTUCKY

CITY           SKY/WX    TMP DP  RH WIND       PRES   REMARKS
PADUCAH        PTSUNNY   80  72  76 SW3       30.17R
HENDERSON      CLOUDY    75  66  73 S3        30.17R
OWENSBORO      PTSUNNY   76  67  73 S6        30.18R
HOPKINSVILLE   NOT AVBL
BOWLING GREEN  SUNNY     80  66  62 CALM      30.20R
GLASGOW        MOSUNNY   79  64  61 CALM      30.21R
$$

KYZ024-025-028>034-038-045-046-053-121500-
NORTH CENTRAL KENTUCKY

CITY           SKY/WX    TMP DP  RH WIND       PRES   REMARKS
LOUISVILLE/SDF PTSUNNY   79  62  56 CALM      30.19R
LOUISVILLE/LOU MOSUNNY   78  62  57 S5        30.19R
FORT KNOX      NOT AVBL
$$

KYZ035>037-039>044-047>052-055>060-089>105-121500-
NORTHEAST KENTUCKY

CITY           SKY/WX    TMP DP  RH WIND       PRES   REMARKS
LEXINGTON      MOSUNNY   79  65  62 SW3       30.21R
COVINGTON      CLOUDY    76  63  64 SW5       30.19R
FRANKFORT      MOSUNNY   79  64  60 VRB3      30.19R
$$

KYZ054-064>069-076>088-106>120-121500-
SOUTHEAST KENTUCKY

CITY           SKY/WX    TMP DP  RH WIND       PRES   REMARKS
JACKSON        SUNNY     76  64  66 CALM      30.23R
LONDON         SUNNY     77  63  61 S3        30.23R
SOMERSET       MOSUNNY   75  61  60 S3        30.23S
MIDDLESBORO    MOSUNNY   73  64  75 CALM      30.25R
MONTICELLO     SUNNY     80  65  60 CALM      30.24R
$$




USA.gov is the U.S. government's official web portal to all federal, state and local government web resources and services.